{"data":{"norad_id":62309,"intl_designator":"2024-239J","name":"STARLINK-32678","alt_names":[],"object_type":"PAYLOAD","status":"ACTIVE","operator":null,"country":"US","launch_date":"2024-12-13","launch_site_code":"AFWTR","launch_vehicle":null,"mission":null,"orbit_class":"UNKNOWN","rcs_meters":null,"size_class":null,"mass_kg":null,"dimensions":null,"purposes":["comms"],"wikipedia_slug":null,"has_3d_model":false,"image_url":null,"decayed_at":null,"tle_current":{"epoch":"2026-05-25T02:43:51.930336Z","epoch_age_seconds":61907,"freshness":"FRESH","line1":"1 62309U 24239J   26145.11379549  .00043353  00000+0  14187-2 0  9997","line2":"2 62309  53.1589 186.2366 0001705  14.1622 345.9427 15.31288264 81265","mean_motion":15.31288264,"eccentricity":0.0001705,"inclination_deg":53.1589,"raan_deg":186.2366,"arg_perigee_deg":14.1622,"mean_anomaly_deg":345.9427,"bstar":0.0014187,"rev_number":8126,"period_min":94.038466424242,"perigee_km":470.79969098178,"apogee_km":473.13557666192,"semimajor_km":6850.1046338218,"source":"CELESTRAK","updated_at":"2026-05-25T13:38:19.648706Z"}}}